Location: Recife
(8.0585°S, 34.8848°W)
Time: 20:41:26
(UTC-03:00)

A-11 Canister half - Pass Details

Date: 15 April 2026
Orbit: 1523 x 1684 km, 47.3° (Epoch: 16 May)

Event Time Altitude Azimuth Distance (km) Brightness Sun altitude
Rises 23:12:41 0° 265° (W) 4,813 - -87.4°
Reaches altitude 10° 23:19:49 10° 300° (WNW) 3,868 - -88.0°
Maximum altitude 23:21:40 11° 311° (NW) 3,828 - -87.9°
Drops below altitude 10° 23:23:33 10° 322° (NW) 3,887 - -87.7°
Sets 23:30:55 0° 357° (N) 4,902 - -86.5°
